Hourly Weather Banbridge

Today, 4 July, Saturday

Time Temperature Precipitation Wind Pressure Humidity
00:00 +14°C° 0.2 mm 1 mps 746 mmHg 99%
01:00 +14°C° 0.1 mm 1 mps 745 mmHg 98%
02:00 +14°C° 0.1 mm 1 mps 745 mmHg 98%
03:00 +14°C° 0.1 mm 1 mps 745 mmHg 98%
04:00 +14°C° 0 mm 1 mps 745 mmHg 98%
05:00 +14°C° 0 mm 1 mps 745 mmHg 98%
06:00 +14°C° 0 mm 2 mps 745 mmHg 98%
07:00 +15°C° 0.1 mm 2 mps 745 mmHg 98%
08:00 +15°C° 0.1 mm 2 mps 746 mmHg 98%
09:00 +14°C° 0.1 mm 3 mps 746 mmHg 97%
10:00 +14°C° 0.3 mm 3 mps 746 mmHg 97%
11:00 +14°C° 0.3 mm 3 mps 746 mmHg 97%
12:00 +14°C° 0.3 mm 3 mps 746 mmHg 97%
13:00 +16°C° 0.1 mm 3 mps 746 mmHg 95%
14:00 +16°C° 0.1 mm 3 mps 746 mmHg 93%
15:00 +17°C° 0.1 mm 3 mps 746 mmHg 91%
16:00 +17°C° 0.1 mm 4 mps 745 mmHg 92%
17:00 +16°C° 0.1 mm 5 mps 745 mmHg 93%
18:00 +16°C° 0.1 mm 5 mps 744 mmHg 93%
19:00 +15°C° 0.2 mm 5 mps 744 mmHg 94%
20:00 +15°C° 0.2 mm 6 mps 743 mmHg 94%
21:00 +14°C° 0.2 mm 6 mps 742 mmHg 95%
22:00 +15°C° 0.7 mm 7 mps 742 mmHg 95%
23:00 +15°C° 0.7 mm 8 mps 741 mmHg 95%

Tomorrow, 5 July, Sunday

Time Temperature Precipitation Wind Pressure Humidity
00:00 +15°C° 0.7 mm 8 mps 741 mmHg 95%
01:00 +13°C° 0.2 mm 8 mps 741 mmHg 94%
02:00 +12°C° 0.2 mm 8 mps 742 mmHg 93%
03:00 +11°C° 0.2 mm 7 mps 742 mmHg 93%
04:00 +10°C° 0 mm 7 mps 743 mmHg 91%
05:00 +10°C° 0 mm 7 mps 744 mmHg 90%
06:00 +9°C° 0 mm 7 mps 744 mmHg 89%
07:00 +10°C° 0.1 mm 7 mps 744 mmHg 85%
08:00 +11°C° 0.1 mm 7 mps 745 mmHg 81%
09:00 +11°C° 0.1 mm 8 mps 745 mmHg 78%
10:00 +12°C° 0.3 mm 8 mps 745 mmHg 77%
11:00 +12°C° 0.3 mm 8 mps 745 mmHg 76%
12:00 +13°C° 0.3 mm 9 mps 745 mmHg 76%
13:00 +12°C° 0.5 mm 8 mps 745 mmHg 78%
14:00 +12°C° 0.5 mm 8 mps 745 mmHg 81%
15:00 +11°C° 0.5 mm 8 mps 745 mmHg 84%
16:00 +11°C° 0.3 mm 8 mps 745 mmHg 84%
17:00 +11°C° 0.3 mm 9 mps 745 mmHg 84%
18:00 +11°C° 0.3 mm 9 mps 745 mmHg 83%
19:00 +11°C° 0 mm 8 mps 746 mmHg 84%
20:00 +10°C° 0 mm 8 mps 747 mmHg 84%
21:00 +9°C° 0 mm 7 mps 748 mmHg 84%
22:00 +9°C° 0 mm 7 mps 748 mmHg 85%
23:00 +9°C° 0 mm 6 mps 749 mmHg 87%

Day after tomorrow, 6 July, Monday

Time Temperature Precipitation Wind Pressure Humidity
00:00 +8°C° 0 mm 6 mps 750 mmHg 88%
01:00 +9°C° 0 mm 7 mps 750 mmHg 85%
02:00 +9°C° 0 mm 7 mps 750 mmHg 82%
03:00 +9°C° 0 mm 8 mps 751 mmHg 79%
04:00 +10°C° 0 mm 7 mps 752 mmHg 80%
05:00 +10°C° 0 mm 7 mps 752 mmHg 82%
06:00 +10°C° 0 mm 7 mps 753 mmHg 84%
07:00 +11°C° 0.1 mm 7 mps 754 mmHg 81%
08:00 +12°C° 0.1 mm 7 mps 755 mmHg 78%
09:00 +14°C° 0.1 mm 7 mps 756 mmHg 76%
10:00 +14°C° 0.1 mm 7 mps 756 mmHg 73%
11:00 +14°C° 0.1 mm 7 mps 757 mmHg 71%
12:00 +15°C° 0.1 mm 6 mps 757 mmHg 68%
13:00 +15°C° 0.1 mm 6 mps 758 mmHg 68%
14:00 +15°C° 0.1 mm 6 mps 758 mmHg 68%
15:00 +15°C° 0.1 mm 6 mps 759 mmHg 68%
16:00 +15°C° 0 mm 5 mps 759 mmHg 69%
17:00 +14°C° 0 mm 5 mps 759 mmHg 71%
18:00 +13°C° 0 mm 5 mps 760 mmHg 72%
19:00 +12°C° 0 mm 4 mps 760 mmHg 78%
20:00 +10°C° 0 mm 3 mps 760 mmHg 83%
21:00 +9°C° 0 mm 2 mps 760 mmHg 89%
22:00 +8°C° 0 mm 2 mps 760 mmHg 91%
23:00 +8°C° 0 mm 2 mps 760 mmHg 92%

7 July, Tuesday

Time Temperature Precipitation Wind Pressure Humidity
00:00 +7°C° 0 mm 2 mps 760 mmHg 94%
01:00 +7°C° 0 mm 3 mps 760 mmHg 95%
02:00 +7°C° 0 mm 3 mps 760 mmHg 96%
03:00 +7°C° 0 mm 3 mps 760 mmHg 96%
04:00 +8°C° 0 mm 3 mps 759 mmHg 94%
05:00 +9°C° 0 mm 3 mps 759 mmHg 92%
06:00 +9°C° 0 mm 3 mps 759 mmHg 90%
07:00 +10°C° 0 mm 3 mps 759 mmHg 86%
08:00 +11°C° 0 mm 3 mps 759 mmHg 81%
09:00 +12°C° 0 mm 3 mps 759 mmHg 77%
10:00 +12°C° 0 mm 4 mps 759 mmHg 78%
11:00 +12°C° 0 mm 4 mps 759 mmHg 79%
12:00 +12°C° 0 mm 4 mps 759 mmHg 80%
13:00 +11°C° 0.5 mm 4 mps 759 mmHg 85%
14:00 +11°C° 0.5 mm 4 mps 758 mmHg 90%
15:00 +10°C° 0.5 mm 4 mps 758 mmHg 95%
16:00 +11°C° 1 mm 4 mps 757 mmHg 95%
17:00 +10°C° 1 mm 5 mps 757 mmHg 96%
18:00 +10°C° 1 mm 6 mps 756 mmHg 96%
19:00 +10°C° 0.3 mm 5 mps 755 mmHg 97%
20:00 +12°C° 0.3 mm 5 mps 755 mmHg 97%
21:00 +13°C° 0.3 mm 5 mps 754 mmHg 97%
22:00 +13°C° 0 mm 6 mps 754 mmHg 96%
23:00 +14°C° 0 mm 6 mps 753 mmHg 96%

8 July, Wednesday

Time Temperature Precipitation Wind Pressure Humidity
00:00 +14°C° 0 mm 7 mps 753 mmHg 95%
01:00 +14°C° 0.4 mm 7 mps 752 mmHg 96%
02:00 +15°C° 0.4 mm 7 mps 752 mmHg 96%
03:00 +15°C° 0.4 mm 7 mps 751 mmHg 96%
04:00 +15°C° 0.3 mm 7 mps 751 mmHg 96%
05:00 +15°C° 0.3 mm 7 mps 751 mmHg 95%
06:00 +15°C° 0.3 mm 7 mps 750 mmHg 95%
07:00 +14°C° 0.1 mm 7 mps 751 mmHg 91%
08:00 +13°C° 0.1 mm 8 mps 751 mmHg 87%
09:00 +12°C° 0.1 mm 8 mps 751 mmHg 84%
10:00 +12°C° 0 mm 8 mps 751 mmHg 81%
11:00 +13°C° 0 mm 8 mps 752 mmHg 78%
12:00 +13°C° 0 mm 8 mps 752 mmHg 75%
13:00 +13°C° 0 mm 8 mps 752 mmHg 75%
14:00 +12°C° 0 mm 8 mps 753 mmHg 75%
15:00 +12°C° 0 mm 8 mps 753 mmHg 75%
16:00 +12°C° 0 mm 7 mps 753 mmHg 76%
17:00 +12°C° 0 mm 7 mps 754 mmHg 76%
18:00 +13°C° 0 mm 6 mps 754 mmHg 77%
19:00 +11°C° 0 mm 6 mps 754 mmHg 80%
20:00 +10°C° 0 mm 5 mps 755 mmHg 83%
21:00 +10°C° 0 mm 4 mps 756 mmHg 86%
22:00 +8°C° 0 mm 4 mps 756 mmHg 88%
23:00 +8°C° 0 mm 3 mps 756 mmHg 91%

9 July, Thursday

Time Temperature Precipitation Wind Pressure Humidity
00:00 +7°C° 0 mm 3 mps 757 mmHg 94%
01:00 +7°C° 0 mm 3 mps 757 mmHg 94%
02:00 +7°C° 0 mm 2 mps 757 mmHg 95%
03:00 +6°C° 0 mm 2 mps 757 mmHg 95%
04:00 +7°C° 0 mm 2 mps 758 mmHg 94%
05:00 +9°C° 0 mm 1 mps 758 mmHg 92%
06:00 +9°C° 0 mm 1 mps 758 mmHg 91%
07:00 +11°C° 0 mm 1 mps 758 mmHg 85%
08:00 +12°C° 0 mm 1 mps 758 mmHg 80%
09:00 +13°C° 0 mm 1 mps 758 mmHg 74%
10:00 +14°C° 0 mm 2 mps 758 mmHg 72%
11:00 +15°C° 0 mm 2 mps 759 mmHg 70%
12:00 +15°C° 0 mm 2 mps 759 mmHg 69%
13:00 +16°C° 0.1 mm 2 mps 758 mmHg 69%
14:00 +16°C° 0.1 mm 2 mps 758 mmHg 70%
15:00 +16°C° 0.1 mm 2 mps 758 mmHg 71%
16:00 +16°C° 0.2 mm 2 mps 758 mmHg 75%
17:00 +15°C° 0.2 mm 2 mps 757 mmHg 79%
18:00 +15°C° 0.2 mm 2 mps 757 mmHg 83%
19:00 +14°C° 0.1 mm 2 mps 757 mmHg 86%
20:00 +13°C° 0.1 mm 2 mps 757 mmHg 89%
21:00 +10°C° 0.1 mm 2 mps 757 mmHg 92%
22:00 +11°C° 0 mm 1 mps 757 mmHg 93%
23:00 +10°C° 0 mm 1 mps 757 mmHg 93%
Show more